When you browse on this site, cookies collect data to enhance your experience and personalize the content and advertising you see.
Visit our Privacy Policy to learn more. By continuing to use the site, you agree to this use of cookies and data.
  • en France
  • Liste des pays
  • À 7 jours
  • Température de l'eau
  • Carte satellitaire
  • Carte météo
  • Widgets météo
  • user-avatar
    Se connecter

    Météo par heure à Sevan

    Ce jour, 23 Juillet, Mardi

    Heure Température Précipitation Vent Pression Humidité
    00:00 +22°C° 0 mm 4 m/s 640 mmHg 69%
    01:00 +22°C° 0 mm 4 m/s 640 mmHg 70%
    02:00 +21°C° 0 mm 3 m/s 640 mmHg 71%
    03:00 +21°C° 0 mm 3 m/s 640 mmHg 72%
    04:00 +21°C° 0 mm 3 m/s 640 mmHg 72%
    05:00 +21°C° 0 mm 3 m/s 640 mmHg 71%
    06:00 +22°C° 0 mm 3 m/s 641 mmHg 71%
    07:00 +24°C° 0 mm 3 m/s 641 mmHg 65%
    08:00 +26°C° 0 mm 2 m/s 641 mmHg 59%
    09:00 +28°C° 0 mm 2 m/s 642 mmHg 53%
    10:00 +29°C° 0 mm 3 m/s 642 mmHg 49%
    11:00 +31°C° 0 mm 3 m/s 642 mmHg 45%
    12:00 +33°C° 0 mm 3 m/s 642 mmHg 41%
    13:00 +34°C° 0.2 mm 3 m/s 642 mmHg 41%
    14:00 +34°C° 0.2 mm 4 m/s 641 mmHg 41%
    15:00 +35°C° 0.2 mm 4 m/s 641 mmHg 40%
    16:00 +33°C° 0.2 mm 5 m/s 640 mmHg 44%
    17:00 +32°C° 0.2 mm 5 m/s 640 mmHg 48%
    18:00 +29°C° 0.2 mm 5 m/s 640 mmHg 53%
    19:00 +28°C° 0 mm 5 m/s 640 mmHg 57%
    20:00 +26°C° 0 mm 5 m/s 639 mmHg 61%
    21:00 +25°C° 0 mm 5 m/s 639 mmHg 66%
    22:00 +23°C° 0 mm 4 m/s 639 mmHg 67%
    23:00 +22°C° 0 mm 4 m/s 639 mmHg 68%

    Demain, 24 Juillet, Mercredi

    Heure Température Précipitation Vent Pression Humidité
    00:00 +22°C° 0 mm 3 m/s 639 mmHg 68%
    01:00 +21°C° 0 mm 3 m/s 639 mmHg 70%
    02:00 +20°C° 0 mm 2 m/s 639 mmHg 71%
    03:00 +20°C° 0 mm 2 m/s 638 mmHg 72%
    04:00 +20°C° 0 mm 2 m/s 639 mmHg 71%
    05:00 +21°C° 0 mm 2 m/s 639 mmHg 70%
    06:00 +21°C° 0 mm 2 m/s 639 mmHg 69%
    07:00 +24°C° 0 mm 2 m/s 640 mmHg 63%
    08:00 +26°C° 0 mm 2 m/s 640 mmHg 57%
    09:00 +28°C° 0 mm 2 m/s 641 mmHg 50%
    10:00 +30°C° 0 mm 2 m/s 641 mmHg 44%
    11:00 +31°C° 0 mm 2 m/s 641 mmHg 38%
    12:00 +33°C° 0 mm 3 m/s 641 mmHg 32%
    13:00 +34°C° 0 mm 3 m/s 641 mmHg 30%
    14:00 +34°C° 0 mm 3 m/s 641 mmHg 28%
    15:00 +35°C° 0 mm 3 m/s 640 mmHg 26%
    16:00 +34°C° 0 mm 3 m/s 640 mmHg 31%
    17:00 +32°C° 0 mm 2 m/s 640 mmHg 36%
    18:00 +31°C° 0 mm 2 m/s 640 mmHg 41%
    19:00 +29°C° 0 mm 2 m/s 640 mmHg 46%
    20:00 +27°C° 0 mm 3 m/s 640 mmHg 51%
    21:00 +25°C° 0 mm 3 m/s 640 mmHg 56%
    22:00 +24°C° 0 mm 3 m/s 640 mmHg 56%
    23:00 +23°C° 0 mm 2 m/s 640 mmHg 56%

    Après-demain, 25 Juillet, Jeudi

    Heure Température Précipitation Vent Pression Humidité
    00:00 +21°C° 0 mm 2 m/s 640 mmHg 56%
    01:00 +20°C° 0 mm 2 m/s 640 mmHg 54%
    02:00 +20°C° 0 mm 2 m/s 639 mmHg 53%
    03:00 +20°C° 0 mm 2 m/s 639 mmHg 51%
    04:00 +21°C° 0 mm 1 m/s 640 mmHg 48%
    05:00 +22°C° 0 mm 1 m/s 640 mmHg 45%
    06:00 +22°C° 0 mm 1 m/s 640 mmHg 42%
    07:00 +24°C° 0 mm 2 m/s 641 mmHg 36%
    08:00 +27°C° 0 mm 2 m/s 642 mmHg 31%
    09:00 +29°C° 0 mm 3 m/s 642 mmHg 25%
    10:00 +30°C° 0 mm 3 m/s 642 mmHg 23%
    11:00 +32°C° 0 mm 4 m/s 642 mmHg 21%
    12:00 +33°C° 0 mm 4 m/s 642 mmHg 19%
    13:00 +34°C° 0 mm 4 m/s 642 mmHg 17%
    14:00 +34°C° 0 mm 3 m/s 642 mmHg 16%
    15:00 +34°C° 0 mm 3 m/s 642 mmHg 14%
    16:00 +34°C° 0 mm 4 m/s 642 mmHg 18%
    17:00 +33°C° 0 mm 4 m/s 641 mmHg 22%
    18:00 +33°C° 0 mm 5 m/s 641 mmHg 25%
    19:00 +29°C° 0 mm 4 m/s 641 mmHg 32%
    20:00 +26°C° 0 mm 4 m/s 641 mmHg 40%
    21:00 +22°C° 0 mm 3 m/s 640 mmHg 47%
    22:00 +21°C° 0 mm 3 m/s 640 mmHg 49%
    23:00 +20°C° 0 mm 2 m/s 640 mmHg 51%

    26 Juillet, Vendredi

    Heure Température Précipitation Vent Pression Humidité
    00:00 +20°C° 0 mm 2 m/s 640 mmHg 53%
    01:00 +19°C° 0 mm 2 m/s 640 mmHg 56%
    02:00 +19°C° 0 mm 2 m/s 640 mmHg 58%
    03:00 +18°C° 0 mm 2 m/s 640 mmHg 60%
    04:00 +19°C° 0 mm 2 m/s 640 mmHg 61%
    05:00 +20°C° 0 mm 1 m/s 641 mmHg 61%
    06:00 +20°C° 0 mm 1 m/s 641 mmHg 61%
    07:00 +21°C° 0 mm 2 m/s 641 mmHg 56%
    08:00 +24°C° 0 mm 2 m/s 642 mmHg 50%
    09:00 +26°C° 0 mm 2 m/s 642 mmHg 45%
    10:00 +28°C° 0.1 mm 2 m/s 642 mmHg 39%
    11:00 +29°C° 0.1 mm 3 m/s 642 mmHg 34%
    12:00 +31°C° 0.1 mm 3 m/s 643 mmHg 28%
    13:00 +31°C° 0.1 mm 3 m/s 642 mmHg 28%
    14:00 +31°C° 0.1 mm 2 m/s 642 mmHg 27%
    15:00 +32°C° 0.1 mm 2 m/s 642 mmHg 27%
    16:00 +30°C° 0.1 mm 3 m/s 641 mmHg 34%
    17:00 +29°C° 0.1 mm 4 m/s 641 mmHg 42%
    18:00 +27°C° 0.1 mm 5 m/s 640 mmHg 49%
    19:00 +25°C° 0 mm 5 m/s 640 mmHg 54%
    20:00 +22°C° 0 mm 5 m/s 640 mmHg 59%
    21:00 +21°C° 0 mm 5 m/s 640 mmHg 63%
    22:00 +20°C° 0 mm 4 m/s 640 mmHg 63%
    23:00 +20°C° 0 mm 4 m/s 640 mmHg 63%

    27 Juillet, Samedi

    Heure Température Précipitation Vent Pression Humidité
    00:00 +19°C° 0 mm 3 m/s 640 mmHg 63%
    01:00 +19°C° 0 mm 3 m/s 640 mmHg 65%
    02:00 +18°C° 0 mm 3 m/s 640 mmHg 67%
    03:00 +18°C° 0 mm 3 m/s 639 mmHg 69%
    04:00 +18°C° 0 mm 3 m/s 639 mmHg 68%
    05:00 +19°C° 0 mm 2 m/s 640 mmHg 67%
    06:00 +19°C° 0 mm 2 m/s 640 mmHg 66%
    07:00 +21°C° 0 mm 2 m/s 640 mmHg 61%
    08:00 +24°C° 0 mm 2 m/s 640 mmHg 55%
    09:00 +26°C° 0 mm 2 m/s 641 mmHg 50%
    10:00 +27°C° 0.1 mm 2 m/s 641 mmHg 47%
    11:00 +29°C° 0.1 mm 2 m/s 641 mmHg 44%
    12:00 +30°C° 0.1 mm 2 m/s 641 mmHg 40%
    13:00 +30°C° 0.2 mm 2 m/s 641 mmHg 39%
    14:00 +31°C° 0.2 mm 3 m/s 640 mmHg 38%
    15:00 +31°C° 0.2 mm 3 m/s 640 mmHg 37%
    16:00 +30°C° 0.1 mm 3 m/s 639 mmHg 43%
    17:00 +28°C° 0.1 mm 4 m/s 639 mmHg 49%
    18:00 +27°C° 0.1 mm 5 m/s 638 mmHg 56%
    19:00 +25°C° 0 mm 5 m/s 638 mmHg 61%
    20:00 +22°C° 0 mm 5 m/s 638 mmHg 66%
    21:00 +21°C° 0 mm 5 m/s 638 mmHg 71%
    22:00 +20°C° 0 mm 4 m/s 638 mmHg 71%
    23:00 +20°C° 0 mm 4 m/s 638 mmHg 71%

    28 Juillet, Dimanche

    Heure Température Précipitation Vent Pression Humidité
    00:00 +19°C° 0 mm 3 m/s 638 mmHg 71%
    01:00 +19°C° 0 mm 3 m/s 637 mmHg 72%
    02:00 +19°C° 0 mm 3 m/s 637 mmHg 73%
    03:00 +18°C° 0 mm 3 m/s 637 mmHg 74%
    04:00 +18°C° 0 mm 3 m/s 637 mmHg 73%
    05:00 +19°C° 0 mm 2 m/s 637 mmHg 72%
    06:00 +19°C° 0 mm 2 m/s 638 mmHg 72%
    07:00 +21°C° 0.1 mm 2 m/s 638 mmHg 66%
    08:00 +24°C° 0.1 mm 2 m/s 638 mmHg 60%
    09:00 +25°C° 0.1 mm 2 m/s 639 mmHg 55%
    10:00 +27°C° 0.2 mm 2 m/s 639 mmHg 50%
    11:00 +29°C° 0.2 mm 2 m/s 639 mmHg 46%
    12:00 +30°C° 0.2 mm 2 m/s 639 mmHg 41%
    13:00 +31°C° 0.3 mm 2 m/s 639 mmHg 39%
    14:00 +32°C° 0.3 mm 2 m/s 639 mmHg 37%
    15:00 +32°C° 0.3 mm 2 m/s 638 mmHg 35%
    16:00 +31°C° 0.3 mm 3 m/s 638 mmHg 41%
    17:00 +29°C° 0.3 mm 4 m/s 638 mmHg 47%
    18:00 +28°C° 0.3 mm 4 m/s 637 mmHg 53%
    19:00 +26°C° 0.2 mm 4 m/s 637 mmHg 58%
    20:00 +23°C° 0.2 mm 4 m/s 637 mmHg 63%
    21:00 +21°C° 0.2 mm 4 m/s 637 mmHg 67%
    22:00 +20°C° 0.3 mm 4 m/s 637 mmHg 68%
    23:00 +20°C° 0.3 mm 3 m/s 637 mmHg 68%
    Voir plus